EB1DWF Weather Reports


Display with metric or nautical units.
time (UTC)temp
F
wind
direction
speed
MPH
gust
MPH
rain 1hr
in
rain 24hr
in
rain mn
in
humidity
%
barometer
mb
20260510224503 52 215 0.0 2.0 0.00 0.32 0.00 91 1002.4
20260510223817 53 186 2.0 3.0 0.00 0.32 0.00 90 1002.4
20260510222703 53 180 2.0 4.0 0.00 0.32 0.00 86 1002.2
20260510222016 54 243 0.0 2.0 0.00 0.32 0.00 84 1002.0
20260510221114 54 264 0.0 2.0 0.00 0.32 0.00 83 1001.9
20260510220004 54 262 1.0 2.0 0.00 0.32 0.00 82 1002.1
20260510215403 54 270 0.0 1.0 0.00 0.32 0.32 81 1002.0
20260510214715 54 247 0.0 2.0 0.00 0.32 0.32 81 1001.9
20260510213817 54 198 0.0 3.0 0.00 0.32 0.32 81 1002.0
20260510212703 54 248 0.0 3.0 0.00 0.32 0.32 80 1001.9
20260510211804 54 267 1.0 3.0 0.00 0.32 0.32 80 1001.7
20260510210903 54 255 0.0 3.0 0.00 0.32 0.32 81 1001.6
20260510210003 54 263 0.0 2.0 0.00 0.32 0.32 81 1001.6
20260510205613 54 258 0.0 2.0 0.00 0.32 0.32 81 1001.6
20260510204716 54 155 0.0 4.0 0.00 0.32 0.32 81 1001.7
20260510203604 55 250 0.0 2.0 0.00 0.32 0.32 81 1001.4
20260510202915 55 207 0.0 3.0 0.00 0.32 0.32 81 1001.3
20260510202012 55 197 0.0 2.0 0.00 0.32 0.32 82 1001.4
20260510200903 56 259 1.0 2.0 0.00 0.32 0.32 82 1001.0
20260510200217 56 213 0.0 3.0 0.00 0.32 0.32 81 1001.0
20260510195614 56 212 1.0 3.0 0.00 0.32 0.32 80 1001.0
20260510194716 56 268 0.0 3.0 0.00 0.32 0.32 77 1000.9
20260510193603 56 181 1.0 4.0 0.00 0.32 0.32 76 1000.9
20260510192703 57 229 2.0 2.0 0.00 0.32 0.32 76 1000.8
20260510192013 57 216 1.0 3.0 0.00 0.32 0.32 79 1000.9
20260510191116 58 227 0.0 3.0 0.00 0.32 0.32 75 1000.7
20260510190003 58 272 0.0 4.0 0.00 0.32 0.32 69 1000.7
20260510185614 58 277 2.0 4.0 0.00 0.32 0.32 68 1000.6
20260510184717 59 264 1.0 3.0 0.00 0.32 0.32 67 1000.7
20260510183814 59 268 1.0 2.0 0.00 0.32 0.32 65 1000.7
20260510182703 60 289 1.0 4.0 0.00 0.32 0.32 67 1000.7
20260510181803 60 309 2.0 7.0 0.00 0.32 0.32 67 1000.6
20260510180903 60 241 2.0 4.0 0.00 0.32 0.32 67 1000.6
20260510180213 60 294 0.0 5.0 0.00 0.32 0.32 64 1000.5
20260510175615 60 264 4.0 5.0 0.00 0.32 0.32 63 1000.4
20260510174503 62 304 1.0 3.0 0.00 0.32 0.32 57 1000.3
20260510173815 62 263 1.0 4.0 0.00 0.32 0.32 54 1000.4
20260510172917 63 247 3.0 4.0 0.00 0.32 0.32 55 1000.2
20260510171803 64 253 0.0 3.0 0.00 0.32 0.32 52 1000.2
20260510170903 67 275 2.0 5.0 0.00 0.32 0.32 47 999.9
20260510170214 69 292 1.0 4.0 0.00 0.32 0.32 44 1000.0
20260510165616 70 280 1.0 4.0 0.00 0.32 0.32 45 999.9
20260510164503 66 259 0.0 4.0 0.00 0.32 0.32 52 999.9
20260510163815 67 277 2.0 4.0 0.00 0.32 0.32 47 999.9
20260510162704 70 237 2.0 4.0 0.00 0.37 0.32 43 1000.0
20260510162015 72 236 2.0 4.0 0.00 0.37 0.32 41 999.9
20260510161112 73 267 2.0 7.0 0.00 0.37 0.32 38 999.9
20260510160004 72 258 1.0 4.0 0.00 0.37 0.32 38 999.8
20260510155403 71 264 2.0 4.0 0.00 0.37 0.32 41 999.9
20260510154503 69 279 2.0 5.0 0.00 0.37 0.32 44 999.9
20260510153816 69 295 2.0 7.0 0.00 0.37 0.32 45 999.9
20260510152913 68 290 2.0 10.0 0.01 0.37 0.32 51 999.9
20260510151804 65 270 2.0 6.0 0.01 0.37 0.32 53 1000.0
20260510151113 65 302 2.0 9.0 0.01 0.37 0.32 50 1000.1
20260510150004 65 311 2.0 8.0 0.01 0.37 0.32 55 1000.1
20260510145617 64 314 4.0 8.0 0.01 0.37 0.32 55 1000.1
20260510144714 62 306 5.0 10.0 0.02 0.37 0.32 65 1000.1
20260510143603 60 238 0.0 4.0 0.25 0.35 0.31 70 1000.2
20260510142914 61 259 2.0 4.0 0.25 0.35 0.31 70 1000.1
20260510141803 60 254 3.0 4.0 0.25 0.35 0.31 71 1000.1
20260510141114 60 281 2.0 4.0 0.25 0.35 0.31 74 1000.2
20260510140003 58 309 1.0 4.0 0.25 0.35 0.31 83 1000.2
20260510135612 57 309 2.0 4.0 0.25 0.35 0.31 84 1000.2
20260510134503 58 288 1.0 3.0 0.21 0.32 0.27 75 1000.5
20260510133817 60 285 2.0 3.0 0.01 0.12 0.07 67 1000.5
20260510132703 61 247 1.0 6.0 0.00 0.11 0.06 60 1000.1
20260510131803 65 198 2.0 5.0 0.00 0.11 0.06 56 1000.0
20260510130903 64 239 2.0 4.0 0.00 0.11 0.06 59 999.9
20260510130003 63 289 2.0 3.0 0.00 0.11 0.06 64 1000.1
20260510125403 61 220 2.0 7.0 0.00 0.11 0.06 64 1000.2
20260510124716 60 211 2.0 7.0 0.00 0.11 0.06 70 1000.2
20260510123603 57 257 0.0 3.0 0.00 0.11 0.06 88 1000.3
20260510122703 52 308 1.0 4.0 0.01 0.11 0.06 89 1000.4
20260510121803 51 295 2.0 11.0 0.01 0.11 0.06 86 1000.5
20260510120903 51 279 6.0 20.0 0.01 0.11 0.06 82 1000.4
20260510120004 54 270 7.0 20.0 0.01 0.11 0.06 78 1000.4
20260510115403 56 277 5.0 10.0 0.01 0.11 0.06 79 1000.4
20260510114503 56 316 2.0 10.0 0.01 0.11 0.06 84 1000.0
20260510113603 54 278 3.0 14.0 0.01 0.11 0.06 82 999.9
20260510112703 55 273 7.0 20.0 0.00 0.09 0.05 74 1000.1
20260510112013 58 279 12.0 17.0 0.00 0.09 0.05 63 1000.0
20260510111116 62 264 4.0 9.0 0.04 0.09 0.05 50 999.7
20260510110004 64 192 1.0 5.0 0.05 0.09 0.05 49 999.4
20260510105403 64 184 4.0 5.0 0.05 0.09 0.05 46 999.4
20260510104503 65 209 1.0 6.0 0.05 0.09 0.05 44 999.6
20260510103814 67 211 3.0 6.0 0.05 0.09 0.05 41 999.7
20260510102917 70 202 4.0 7.0 0.05 0.09 0.05 34 999.6
20260510101803 81 308 2.0 4.0 0.05 0.09 0.05 29 999.7
20260510101116 84 278 2.0 3.0 0.01 0.06 0.05 33 999.7
20260510100213 81 295 0.0 1.0 0.00 0.05 0.00 37 999.7
20260510095403 78 0 0.0 0.0 0.00 0.05 0.00 53 999.8
20260510094712 74 0 0.0 0.0 0.00 0.05 0.00 67 999.8
20260510093603 67 0 0.0 0.0 0.00 0.05 0.00 85 999.7
20260510092917 63 0 0.0 0.0 0.00 0.05 0.00 90 999.8
20260510092014 59 0 0.0 0.0 0.00 0.05 0.00 94 999.9
20260510091117 57 0 0.0 0.0 0.00 0.05 0.00 100 999.9
20260510090214 56 0 0.0 0.0 0.00 0.05 0.00 100 999.8
20260510085404 56 0 0.0 0.0 0.00 0.05 0.00 100 999.7
20260510084504 56 0 0.0 0.0 0.00 0.05 0.00 100 999.8
20260510083603 56 0 0.0 0.0 0.00 0.05 0.00 100 999.7
20260510082918 55 0 0.0 0.0 0.00 0.05 0.00 97 999.7
20260510082015 55 0 0.0 0.0 0.00 0.05 0.00 97 999.8
20260510081112 55 0 0.0 0.0 0.00 0.05 0.00 97 999.9
20260510080003 54 0 0.0 0.0 0.00 0.05 0.00 97 999.8
20260510075403 53 0 0.0 0.0 0.00 0.05 0.00 100 1000.0
20260510074714 53 0 0.0 0.0 0.00 0.05 0.00 100 1000.1
20260510073603 52 0 0.0 0.0 0.00 0.05 0.00 100 999.9
20260510072703 51 0 0.0 0.0 0.00 0.05 0.00 100 999.8
20260510072016 50 315 0.0 1.0 0.00 0.05 0.00 100 1000.0
20260510070903 50 0 0.0 0.0 0.00 0.05 0.00 100 1000.0
20260510070003 49 0 0.0 0.0 0.00 0.05 0.00 100 1000.0
20260510065403 49 0 0.0 0.0 0.00 0.05 0.00 100 1000.0
20260510064503 49 338 0.0 1.0 0.00 0.05 0.00 100 999.9
20260510063603 49 270 0.0 1.0 0.00 0.05 0.00 100 1000.0
20260510062914 49 270 0.0 1.0 0.00 0.05 0.00 100 999.9
20260510061803 48 0 0.0 0.0 0.00 0.05 0.00 100 999.8
20260510061114 48 0 0.0 0.0 0.00 0.05 0.00 100 999.6
20260510060216 48 0 0.0 0.0 0.00 0.05 0.00 100 999.8
20260510055403 49 0 0.0 0.0 0.00 0.05 0.00 100 999.9
20260510054715 49 0 0.0 0.0 0.00 0.05 0.00 100 999.8
20260510053604 49 0 0.0 0.0 0.00 0.05 0.00 100 999.7
20260510052704 48 0 0.0 0.0 0.00 0.05 0.00 100 999.7
20260510052017 49 0 0.0 0.0 0.00 0.05 0.00 100 999.7
20260510050903 49 0 0.0 0.0 0.00 0.05 0.00 100 999.8
20260510050217 49 0 0.0 0.0 0.00 0.05 0.00 100 999.8
20260510045403 48 0 0.0 0.0 0.00 0.05 0.00 100 999.7
20260510044503 49 0 0.0 0.0 0.00 0.05 0.00 100 999.8
20260510043603 48 0 0.0 0.0 0.00 0.05 0.00 100 999.7
20260510042703 48 0 0.0 0.0 0.00 0.05 0.00 100 999.7
20260510041804 48 0 0.0 0.0 0.00 0.05 0.00 100 999.7
20260510041115 48 0 0.0 0.0 0.00 0.05 0.00 100 999.7
20260510040004 48 0 0.0 0.0 0.00 0.05 0.00 100 999.6
20260510035403 48 315 0.0 1.0 0.00 0.05 0.00 100 999.7
20260510034716 48 315 0.0 1.0 0.00 0.05 0.00 100 999.7
20260510033603 48 0 0.0 0.0 0.00 0.05 0.00 100 999.6
20260510032916 47 0 0.0 0.0 0.00 0.05 0.00 100 999.6
20260510032013 47 0 0.0 0.0 0.00 0.05 0.00 100 999.7
20260510031116 47 0 0.0 0.0 0.00 0.05 0.00 100 999.7
20260510030213 48 0 0.0 0.0 0.00 0.05 0.00 100 999.8
20260510025614 48 0 0.0 0.0 0.00 0.05 0.00 100 999.7
20260510024717 48 0 0.0 0.0 0.00 0.05 0.00 100 999.8
20260510023603 49 0 0.0 0.0 0.00 0.05 0.00 100 999.8
20260510022917 49 0 0.0 0.0 0.00 0.05 0.00 100 999.8
20260510022014 49 0 0.0 0.0 0.00 0.05 0.00 100 999.9
20260510021116 49 0 0.0 0.0 0.00 0.05 0.00 100 1000.1
20260510020003 50 0 0.0 0.0 0.00 0.05 0.00 100 1000.1
20260510015615 50 0 0.0 0.0 0.00 0.05 0.00 100 1000.1
20260510014712 50 0 0.0 0.0 0.00 0.05 0.00 100 1000.3
20260510013603 50 0 0.0 0.0 0.00 0.05 0.00 100 1000.3
20260510012704 50 0 0.0 0.0 0.00 0.05 0.00 100 1000.3
20260510012014 50 0 0.0 0.0 0.00 0.05 0.00 100 1000.2
20260510010903 50 0 0.0 0.0 0.00 0.05 0.00 100 1000.2
20260510010004 50 0 0.0 0.0 0.00 0.05 0.00 100 1000.2
20260510005403 50 0 0.0 0.0 0.00 0.05 0.00 100 1000.2
20260510004503 50 0 0.0 0.0 0.00 0.05 0.00 100 1000.5
20260510003603 50 0 0.0 0.0 0.00 0.05 0.00 100 1000.4
20260510002913 50 0 0.0 0.0 0.00 0.05 0.00 100 1000.3
20260510002015 50 0 0.0 0.0 0.00 0.05 0.00 100 1000.2
20260510001117 50 0 0.0 0.0 0.00 0.05 0.00 100 1000.3
20260510000004 50 0 0.0 0.0 0.00 0.05 0.00 100 1000.3
20260509235616 50 0 0.0 0.0 0.00 0.05 0.00 100 1000.2
20260509234504 50 0 0.0 0.0 0.00 0.05 0.00 100 1000.2
20260509233816 50 0 0.0 0.0 0.00 0.05 0.00 100 1000.1
20260509232703 50 270 0.0 1.0 0.00 0.05 0.00 100 1000.1
20260509232016 50 0 0.0 0.0 0.00 0.05 0.00 100 1000.1
20260509231113 50 0 0.0 0.0 0.00 0.05 0.00 100 1000.0
20260509230215 50 0 0.0 0.0 0.00 0.05 0.00 100 999.7
20260509225404 50 0 0.0 0.0 0.00 0.05 0.00 100 999.9